Powrót do katalogu

CZ-4 DEB

AktywnySSO
NORAD 28069·DEBRIS·🇨🇳 China

Wystrzelony Oct 14, 1999 z Taiyuan Satellite Launch Center

Loading…

Następne Przeloty (najbliższe 24 godziny)

TLE

ŚwieżeSource: Space-Track

Epoka: Sep 14, 2026, 09:49 UTC

1 28069U 99057MZ  26257.40952224  .00001034  00000-0  24478-3 0  9991
2 28069  98.4701 321.2422 0068586 183.8634 176.2042 14.54873733718652

Śledź CZ-4 DEB w czasie rzeczywistym z AllMySat

Download on the App Store